PBO Station Position Time Series. Reference Frame : NAM14
Format Version,1.1.0
4-character ID,RDSJ
Station name,SJMaguanaDOM2015
Begin Date, 2015-11-08
End Date, 2019-10-07
Release Date, 2019-10-08
Reference position, 18.8194758868 North Latitude, -71.2270049472 East Longitude, 405.11718 meters elevation,
Date, North (mm), East (mm), Vertical (mm), North Std. Deviation (mm), East Std. Deviation (mm),              Vertical Std. Deviation (mm), Quality,
2015-11-08,0.00, 0.00, 0.00, 3.16, 3.02, 12.79, repro,
2015-11-09,0.36, 0.64, 4.45, 3.19, 3.02, 12.70, repro,
2015-11-10,1.71, -0.77, -8.37, 3.22, 3.03, 12.85, repro,
2015-11-11,4.22, 1.39, 5.40, 3.23, 3.13, 13.13, repro,
2015-11-12,2.76, -0.42, -6.87, 3.21, 3.00, 12.79, repro,
2015-11-13,7.06, 2.15, 13.48, 3.22, 3.00, 12.73, repro,
2015-11-14,3.22, -1.04, 0.17, 3.23, 3.04, 12.89, repro,
2015-11-15,2.72, -4.46, 9.37, 3.20, 2.99, 12.68, repro,
2015-11-16,0.22, -1.76, -15.29, 3.20, 2.99, 12.73, repro,
2015-11-17,3.81, -1.28, -16.79, 2.41, 2.33, 10.10, repro,
2015-11-18,3.89, -1.03, -7.84, 1.62, 1.76, 7.68, repro,
2015-11-19,2.70, 0.89, -2.47, 1.60, 1.71, 7.56, repro,
2015-11-20,1.13, -0.17, -2.25, 1.60, 1.69, 7.52, repro,
2015-11-21,0.12, -1.08, -10.79, 1.67, 1.72, 7.77, repro,
2015-11-22,2.67, -0.82, 3.16, 1.60, 1.68, 7.50, repro,
2015-11-23,1.74, 0.10, -3.07, 1.64, 1.73, 7.64, repro,
2015-11-24,1.92, 0.66, 3.47, 1.71, 1.82, 8.02, repro,
2015-11-25,2.06, -0.06, 5.85, 1.59, 1.69, 7.49, repro,
2015-11-26,1.75, -0.85, -7.48, 1.69, 1.77, 7.90, repro,
2015-11-29,-0.66, 3.60, -3.29, 2.54, 2.49, 11.78, repro,
2015-11-30,1.22, 0.31, -5.50, 1.74, 1.90, 8.20, repro,
2015-12-01,2.55, -1.72, 9.23, 1.92, 1.92, 8.83, repro,
2015-12-02,2.77, 0.18, -7.79, 1.64, 1.70, 7.67, repro,
2015-12-04,-0.67, 1.93, -4.43, 4.08, 4.34, 19.41, repro,
2015-12-05,-0.04, 0.29, -4.61, 1.62, 1.75, 7.63, repro,
2015-12-07,2.90, -0.95, 6.45, 1.76, 1.80, 8.30, repro,
2015-12-08,1.75, 0.98, -2.19, 1.63, 1.73, 7.77, repro,
2015-12-09,1.85, 0.20, -2.38, 1.66, 1.70, 7.71, repro,
2015-12-10,2.81, 1.76, -5.82, 3.29, 3.64, 16.38, repro,
2015-12-11,2.41, -0.11, 1.81, 1.64, 1.70, 7.73, repro,
2015-12-12,1.90, -1.55, -0.56, 1.72, 1.80, 8.24, repro,
2015-12-13,1.77, -1.60, -6.14, 1.68, 1.76, 7.92, repro,
2015-12-14,3.05, 0.51, 8.58, 1.57, 1.69, 7.35, repro,
2015-12-15,0.96, 1.17, 1.30, 1.56, 1.67, 7.33, repro,
2015-12-16,1.48, 0.19, 9.46, 1.57, 1.68, 7.34, repro,
2015-12-17,1.86, 1.87, -5.73, 1.59, 1.77, 7.61, repro,
2015-12-18,0.77, 2.31, -1.48, 1.59, 1.76, 7.61, repro,
2015-12-19,0.46, 1.25, 2.26, 1.58, 1.70, 7.41, repro,
2015-12-20,0.11, 1.61, -5.81, 1.61, 1.77, 7.57, repro,
2015-12-21,0.66, 1.63, -10.49, 1.57, 1.71, 7.46, repro,
2015-12-22,2.47, 0.95, -1.02, 1.60, 1.74, 7.55, repro,
2015-12-23,2.52, 0.06, -3.09, 1.87, 1.99, 8.73, repro,
2015-12-26,-1.80, -1.92, -4.10, 1.60, 1.74, 7.63, repro,
2015-12-27,0.32, 1.10, 0.96, 1.57, 1.67, 7.33, repro,
2015-12-28,1.34, 0.74, -9.57, 1.56, 1.67, 7.31, repro,
2015-12-29,1.86, 1.31, -4.55, 1.56, 1.68, 7.36, repro,
2015-12-30,1.21, 1.66, 2.87, 1.56, 1.68, 7.37, repro,
2015-12-31,2.35, 2.63, -5.51, 1.58, 1.71, 7.43, repro,
2016-01-01,1.00, 0.48, 5.56, 1.64, 1.73, 7.65, repro,
2016-01-02,1.02, 0.94, -2.36, 1.58, 1.68, 7.40, repro,
2016-01-03,2.73, 2.02, -0.04, 1.61, 1.68, 7.48, repro,
2016-01-04,0.17, 2.54, 0.59, 1.60, 1.71, 7.53, repro,
2016-01-05,-0.76, 0.97, -3.92, 1.57, 1.67, 7.33, repro,
2016-01-06,0.44, -0.49, 2.21, 1.61, 1.72, 7.51, repro,
2016-01-07,0.93, 0.65, -1.45, 1.62, 1.69, 7.48, repro,
2016-01-08,0.89, 2.43, -1.05, 1.87, 2.02, 9.17, repro,
2016-01-09,0.39, 0.36, -0.94, 1.62, 1.75, 7.67, repro,
2016-01-10,0.22, 2.47, -4.43, 1.56, 1.69, 7.42, repro,
2016-01-11,1.37, 0.66, -1.67, 1.63, 1.76, 7.67, repro,
2016-01-12,0.58, 2.19, 1.03, 1.60, 1.72, 7.64, repro,
2016-01-13,0.45, 1.87, -3.06, 1.57, 1.67, 7.42, repro,
2016-01-14,0.24, 0.69, 6.01, 1.59, 1.74, 7.62, repro,
2016-01-15,1.59, 1.25, 4.47, 1.61, 1.71, 7.76, repro,
2016-01-16,0.97, 1.23, 2.99, 1.55, 1.66, 7.32, repro,
2016-01-17,0.11, 1.33, 11.04, 1.57, 1.67, 7.40, repro,
2016-01-18,0.22, 1.37, 4.10, 1.56, 1.70, 7.44, repro,
2016-01-19,-0.60, 2.53, 0.76, 1.57, 1.68, 7.46, repro,
2016-01-20,0.28, 1.66, -0.22, 1.56, 1.70, 7.53, repro,
2016-01-21,-0.03, 1.70, -1.07, 1.58, 1.73, 7.53, repro,
2016-01-22,0.80, 1.67, -5.24, 1.56, 1.69, 7.42, repro,
2016-01-23,1.76, 0.77, -1.41, 1.56, 1.66, 7.41, repro,
2016-01-24,0.67, -0.27, 0.27, 1.60, 1.77, 7.69, repro,
2016-01-25,-1.19, 0.78, 0.82, 1.64, 1.82, 7.86, repro,
2016-01-26,0.64, 2.06, 1.31, 1.67, 1.80, 7.91, repro,
2016-01-27,0.08, 1.15, -0.51, 1.58, 1.71, 7.46, repro,
2016-01-28,1.44, 2.49, 1.73, 1.60, 1.71, 7.55, repro,
2016-01-29,0.52, 1.65, -7.72, 1.63, 1.79, 7.80, repro,
2016-01-30,0.24, 1.26, -0.32, 1.63, 1.77, 7.84, repro,
2016-01-31,0.94, 2.43, 5.67, 1.63, 1.77, 7.69, repro,
2016-02-01,0.60, 1.37, -0.36, 1.59, 1.73, 7.58, repro,
2016-02-02,1.10, 1.50, 4.53, 1.62, 1.75, 7.72, repro,
2016-02-03,0.04, 1.88, -9.35, 1.60, 1.72, 7.65, repro,
2016-02-04,-1.20, 0.95, -10.38, 1.61, 1.73, 7.67, repro,
2016-02-05,0.98, 0.75, 1.56, 1.62, 1.73, 7.75, repro,
2016-02-06,-0.23, 3.35, -12.12, 2.71, 3.36, 13.67, repro,
2016-02-07,0.98, 4.77, 5.21, 1.61, 1.71, 7.61, repro,
2016-02-08,0.43, 2.54, 2.86, 1.68, 1.76, 7.85, repro,
2016-02-09,0.05, 2.30, 1.17, 1.68, 1.79, 7.94, repro,
2016-02-10,1.20, 2.74, -3.55, 1.70, 1.81, 8.00, repro,
2016-02-11,2.84, 1.05, 5.58, 1.74, 1.87, 8.52, repro,
2016-02-12,-0.40, 2.98, 4.63, 1.60, 1.72, 7.52, repro,
2016-02-13,-0.51, -1.45, -4.02, 1.62, 1.81, 7.84, repro,
2016-02-14,-1.96, 3.11, 1.12, 1.61, 1.76, 7.74, repro,
2016-02-15,0.76, 2.08, -0.83, 1.62, 1.73, 7.70, repro,
2016-02-16,0.43, 2.17, 0.96, 1.60, 1.72, 7.61, repro,
2016-02-17,1.25, 1.80, -1.95, 1.60, 1.72, 7.64, repro,
2016-02-18,2.89, -1.14, 1.90, 1.68, 1.84, 8.05, repro,
2016-02-19,0.79, 1.02, -4.34, 1.59, 1.70, 7.51, repro,
2016-02-20,1.45, 2.46, 1.89, 1.60, 1.71, 7.56, repro,
2016-02-21,-0.10, 1.11, 3.11, 1.64, 1.81, 7.79, repro,
2016-02-22,1.26, 0.62, -2.95, 1.62, 1.73, 7.68, repro,
2016-02-23,3.51, 0.64, 10.64, 1.65, 1.79, 7.96, repro,
2016-02-24,1.93, 1.22, 0.68, 1.60, 1.74, 7.67, repro,
2016-02-25,0.95, 2.79, 1.94, 1.66, 1.77, 7.89, repro,
2016-02-26,-0.94, -0.34, 5.71, 1.69, 1.92, 8.14, repro,
2016-02-27,3.66, 2.66, 0.06, 1.62, 1.74, 7.65, repro,
2016-02-28,1.10, 1.53, -3.83, 1.63, 1.73, 7.78, repro,
2016-02-29,-0.07, 1.72, 0.97, 1.86, 1.94, 8.82, repro,
2016-03-01,-0.56, 3.47, -7.25, 1.69, 1.87, 8.14, repro,
2016-03-02,0.82, 0.71, -0.20, 1.68, 1.76, 7.94, repro,
2016-03-03,1.35, 0.20, 5.19, 1.59, 1.71, 7.53, repro,
2016-03-04,0.34, 1.70, -0.57, 1.62, 1.72, 7.83, repro,
2016-03-05,0.63, 1.72, -8.53, 1.63, 1.75, 7.73, repro,
2016-03-06,1.70, -1.97, -4.81, 1.64, 1.76, 7.93, repro,
2016-03-07,0.86, 2.52, -7.04, 1.88, 1.97, 9.11, repro,
2016-03-08,1.81, -0.39, 5.90, 1.74, 1.92, 8.44, repro,
2016-03-09,1.85, -0.49, -2.25, 1.60, 1.75, 7.63, repro,
2016-03-10,0.75, 0.58, 2.57, 1.70, 1.83, 8.10, repro,
2016-03-11,-0.19, 0.44, -6.29, 1.57, 1.66, 7.51, repro,
2016-03-12,-0.12, 1.36, 2.72, 1.64, 1.73, 7.92, repro,
2016-03-13,1.25, 0.57, -1.77, 1.58, 1.67, 7.53, repro,
2016-03-14,1.46, 0.38, -1.44, 1.76, 1.93, 8.82, repro,
2016-03-15,1.79, 1.27, 1.74, 1.66, 1.75, 8.09, repro,
2016-03-16,-2.30, 13.98, -84.91, 3.74, 4.19, 18.82, repro,
2016-03-17,-2.10, -2.54, -5.17, 2.81, 3.47, 14.46, repro,
2016-03-18,0.64, -0.60, 11.46, 1.66, 1.80, 8.09, repro,
2016-03-19,1.81, 1.14, -8.62, 1.66, 1.88, 8.16, repro,
2016-03-20,0.94, 1.49, 1.74, 1.57, 1.66, 7.52, repro,
2016-03-21,0.93, -0.47, 0.58, 1.58, 1.71, 7.56, repro,
2016-03-22,1.22, -0.00, 9.84, 1.69, 1.75, 7.96, repro,
2016-03-23,0.39, 0.32, 5.72, 1.58, 1.65, 7.47, repro,
2016-03-24,1.50, 0.66, 3.29, 1.57, 1.65, 7.44, repro,
2016-03-25,1.62, 0.43, 4.19, 1.57, 1.65, 7.41, repro,
2016-03-26,1.13, 0.83, -0.58, 1.57, 1.65, 7.45, repro,
2016-03-27,0.65, -1.10, 0.92, 1.58, 1.66, 7.53, repro,
2016-03-28,-0.50, 0.41, -8.62, 1.58, 1.65, 7.47, repro,
2016-03-29,-0.22, 0.28, 0.26, 1.62, 1.72, 7.64, repro,
2016-03-30,0.38, 1.51, 0.65, 1.61, 1.69, 7.63, repro,
2016-03-31,0.16, 1.28, 0.77, 1.58, 1.65, 7.43, repro,
2016-04-01,0.00, 1.03, 9.20, 1.69, 1.79, 7.81, repro,
2016-04-02,-1.83, 3.22, 12.02, 1.63, 1.70, 7.77, repro,
2016-04-03,-1.48, 1.46, 0.52, 1.60, 1.68, 7.61, repro,
2016-04-04,0.64, 2.36, 5.88, 1.60, 1.68, 7.63, repro,
2016-04-05,0.81, 0.93, 0.89, 1.58, 1.67, 7.47, repro,
2016-04-06,-1.16, -0.89, 7.44, 1.59, 1.68, 7.52, repro,
2016-04-07,0.03, 0.24, 1.99, 1.68, 1.78, 7.88, repro,
2016-04-08,-0.73, -0.12, -4.17, 1.59, 1.72, 7.57, repro,
2016-04-09,-0.88, -1.10, 8.29, 1.57, 1.67, 7.48, repro,
2016-04-10,1.22, 1.57, 2.61, 1.66, 1.75, 7.79, repro,
2016-04-11,-2.35, 2.15, 1.52, 1.62, 1.70, 7.72, repro,
2016-04-12,0.17, 0.82, -12.19, 1.75, 1.78, 8.45, repro,
2016-04-13,-2.20, 0.18, 1.07, 1.64, 1.77, 7.83, repro,
2016-04-14,1.49, 1.34, -3.27, 1.85, 1.89, 8.58, repro,
2016-04-15,0.31, 1.30, -10.40, 1.73, 1.78, 8.30, repro,
2016-04-16,1.46, 0.21, 12.64, 1.96, 2.18, 9.33, repro,
2016-04-17,0.52, 1.62, 10.61, 1.70, 1.77, 8.19, repro,
2016-04-18,1.94, -0.46, 3.39, 1.72, 1.81, 8.16, repro,
2016-04-19,1.01, 0.13, 2.55, 1.73, 1.92, 8.25, repro,
2016-04-20,1.52, 0.22, 14.42, 1.64, 1.75, 7.93, repro,
2016-04-21,1.93, 0.92, -0.34, 1.57, 1.68, 7.56, repro,
2016-04-22,0.16, 0.98, -0.92, 1.57, 1.67, 7.57, repro,
2016-04-23,1.48, -0.06, 7.62, 1.58, 1.69, 7.66, repro,
2016-04-24,-0.38, -0.61, -2.21, 1.73, 1.84, 8.31, repro,
2016-04-25,-0.57, 0.27, 2.20, 1.67, 1.81, 8.16, repro,
2016-04-26,1.43, 1.60, 6.19, 1.59, 1.70, 7.58, repro,
2016-04-27,0.08, 2.16, 6.01, 1.57, 1.69, 7.63, repro,
2016-04-28,-0.26, -0.49, -13.59, 1.64, 1.75, 7.86, repro,
2016-04-29,3.37, 1.29, -8.75, 1.69, 1.87, 8.27, repro,
2016-04-30,-1.62, 0.11, -1.79, 1.79, 1.90, 8.56, repro,
2016-05-01,-2.02, 3.00, 6.00, 1.90, 2.23, 9.41, repro,
2016-05-02,-0.61, 0.38, 3.47, 1.79, 1.97, 8.47, repro,
2016-05-03,1.00, -0.40, -4.35, 1.73, 1.92, 8.35, repro,
2016-05-04,2.13, 1.07, -4.41, 1.62, 1.75, 7.83, repro,
2016-05-05,1.32, 1.51, 3.86, 1.64, 1.83, 7.90, repro,
2016-05-06,1.00, -0.64, -2.04, 1.64, 1.82, 7.97, repro,
2016-05-07,0.83, 0.60, 4.01, 1.67, 1.79, 8.27, repro,
2016-05-08,0.09, -0.45, 0.72, 1.73, 1.89, 8.56, repro,
2016-05-09,-0.25, 1.25, -5.94, 1.75, 1.92, 8.36, repro,
2016-05-10,-0.13, 0.07, -12.06, 2.03, 2.02, 9.67, repro,
2016-05-11,1.71, 0.29, -1.70, 1.61, 1.74, 7.59, repro,
2016-05-12,1.43, 1.32, -11.73, 1.86, 1.91, 8.64, repro,
2016-05-13,-0.14, 1.92, -5.37, 1.59, 1.73, 7.62, repro,
2016-05-14,0.97, -0.45, 0.97, 1.61, 1.78, 7.82, repro,
2016-05-15,0.49, 1.23, -3.55, 1.69, 1.83, 8.27, repro,
2016-05-16,-2.67, 0.31, -9.58, 1.62, 1.78, 7.81, repro,
2016-05-17,-0.49, 0.67, -15.54, 1.59, 1.73, 7.57, repro,
2016-05-18,-1.83, 0.47, 4.76, 1.61, 1.75, 7.76, repro,
2016-05-19,1.08, 1.85, 6.24, 1.64, 1.79, 7.84, repro,
2016-05-20,-0.89, 1.04, 2.58, 1.70, 1.81, 8.28, repro,
2016-05-21,0.21, 1.59, 12.10, 1.65, 1.83, 8.00, repro,
2016-05-22,0.38, 2.44, 1.83, 1.59, 1.73, 7.61, repro,
2016-05-23,-0.06, 0.99, -1.09, 1.60, 1.73, 7.69, repro,
2016-05-24,-0.44, 0.43, -0.73, 1.60, 1.76, 7.71, repro,
2016-05-25,-0.27, 1.29, -7.97, 1.66, 1.78, 7.94, repro,
2016-05-26,0.18, 1.27, 8.43, 1.62, 1.79, 7.85, repro,
2016-05-29,2.19, 1.26, 16.80, 1.96, 2.15, 9.15, repro,
2016-05-30,0.61, 0.86, 5.80, 1.66, 1.74, 7.87, repro,
2016-05-31,1.29, 1.31, 4.03, 1.76, 1.87, 8.70, repro,
2016-06-01,2.31, 0.10, -3.69, 1.59, 1.74, 7.71, repro,
2016-06-02,0.99, 2.01, -7.07, 1.58, 1.71, 7.57, repro,
2016-06-03,-0.57, 3.73, -13.41, 1.81, 1.90, 8.79, repro,
2016-06-04,0.41, 0.31, 1.63, 1.87, 1.99, 8.98, repro,
2016-06-05,1.58, -0.03, -3.21, 1.61, 1.74, 7.73, repro,
2016-06-06,1.54, 0.24, 5.06, 1.58, 1.72, 7.57, repro,
2016-06-07,0.35, 1.06, -2.22, 1.59, 1.73, 7.65, repro,
2016-06-08,0.40, 0.62, -6.48, 1.64, 1.79, 7.81, repro,
2016-06-09,0.50, 1.62, 2.07, 1.64, 1.79, 7.98, repro,
2016-06-10,0.89, 1.21, -6.30, 1.63, 1.77, 7.81, repro,
2016-06-11,2.45, -1.55, -7.51, 1.97, 2.28, 9.30, repro,
2016-06-12,1.89, 0.28, -0.83, 1.60, 1.72, 7.75, repro,
2016-06-13,-0.51, 2.84, -3.12, 1.61, 1.74, 7.76, repro,
2016-06-14,0.64, 0.26, -8.73, 1.60, 1.73, 7.63, repro,
2016-06-15,2.46, 0.41, -2.46, 1.64, 1.78, 7.85, repro,
2016-06-16,-0.08, 0.42, 5.23, 1.72, 1.95, 8.51, repro,
2016-06-17,0.62, 0.43, 4.17, 1.59, 1.73, 7.60, repro,
2016-06-18,1.63, 0.11, -5.48, 2.46, 2.94, 11.64, repro,
2016-06-19,-0.72, -1.52, -4.36, 1.63, 1.79, 7.94, repro,
2016-06-20,0.83, -0.35, -2.88, 1.80, 1.93, 8.82, repro,
2016-06-21,0.17, 0.65, -4.79, 1.65, 1.78, 8.08, repro,
2016-06-22,-0.16, -2.81, 1.60, 1.76, 2.01, 8.62, repro,
2016-06-23,-0.21, 0.57, 1.29, 1.61, 1.76, 7.69, repro,
2016-06-24,2.08, -0.09, -6.38, 1.77, 1.94, 8.48, repro,
2016-06-25,0.16, -0.51, 1.06, 1.60, 1.77, 7.73, repro,
2016-06-26,-0.48, -5.18, -11.73, 1.83, 1.95, 8.83, repro,
2016-06-27,0.57, 0.72, -8.94, 1.62, 1.82, 7.86, repro,
2016-06-28,1.05, 0.67, 0.72, 1.66, 1.76, 7.84, repro,
2016-06-29,-0.47, 1.79, 4.80, 1.60, 1.73, 7.62, repro,
2016-06-30,-0.32, -1.17, -4.20, 1.62, 1.75, 7.81, repro,
2016-07-01,-0.21, 1.20, -5.00, 1.59, 1.72, 7.59, repro,
2016-07-02,-1.67, -2.31, -6.63, 1.66, 1.76, 7.86, repro,
2016-07-03,2.34, 1.02, -6.17, 1.59, 1.78, 7.69, repro,
2016-07-04,0.71, 0.01, -7.62, 1.59, 1.78, 7.73, repro,
2016-07-05,0.86, -0.08, -0.66, 1.82, 2.15, 8.59, repro,
2016-07-06,0.51, 0.17, -6.87, 1.61, 1.74, 7.72, repro,
2016-07-07,1.61, -2.61, -0.63, 1.69, 1.88, 8.10, repro,
2016-07-10,3.65, -1.51, 2.37, 4.09, 4.04, 22.14, repro,
2016-07-11,-0.08, -1.60, 1.81, 1.58, 1.72, 7.55, repro,
2016-07-12,0.25, -1.72, -3.05, 1.85, 2.13, 8.92, repro,
2016-07-13,0.12, 0.59, -5.96, 1.71, 1.98, 8.20, repro,
2016-07-14,1.68, 0.65, -13.75, 1.80, 2.06, 8.82, repro,
2016-07-15,0.54, -0.95, -5.08, 1.64, 1.86, 7.94, repro,
2016-07-16,1.24, 2.49, -3.15, 1.62, 1.76, 7.77, repro,
2016-07-17,0.55, -0.24, -1.23, 1.68, 1.94, 8.10, repro,
2016-07-18,1.99, 0.68, -5.99, 1.65, 1.81, 7.96, repro,
2016-07-19,-0.82, -0.50, -5.18, 1.64, 1.83, 8.02, repro,
2016-07-20,0.50, -0.43, -4.08, 1.66, 1.77, 7.99, repro,
2016-07-21,2.45, 1.45, -5.35, 1.59, 1.73, 7.58, repro,
2016-07-22,3.00, 0.18, 7.91, 1.69, 1.90, 8.21, repro,
2016-07-25,0.67, 4.00, -8.17, 2.97, 3.13, 15.48, repro,
2016-07-26,2.56, -1.04, 2.31, 1.95, 2.19, 9.20, repro,
2016-07-27,1.60, -1.37, -14.17, 2.00, 2.43, 9.76, repro,
2016-07-28,-0.50, 0.72, -14.23, 1.73, 1.88, 8.49, repro,
2016-07-29,-1.08, 0.98, -7.32, 1.69, 1.82, 8.28, repro,
2016-07-30,0.76, -0.26, -13.28, 1.62, 1.78, 7.77, repro,
2016-07-31,2.44, -0.80, -5.23, 1.60, 1.71, 7.58, repro,
2016-08-01,0.20, -0.27, -6.05, 1.60, 1.73, 7.69, repro,
2016-08-02,-0.32, 0.83, 1.63, 1.63, 1.88, 7.98, repro,
2016-08-03,1.48, -1.03, -4.09, 1.72, 1.87, 8.18, repro,
2016-08-04,1.71, 2.36, 1.42, 1.60, 1.71, 7.54, repro,
2016-08-05,1.43, -0.03, -12.09, 1.91, 2.40, 9.20, repro,
2016-08-06,3.23, -0.73, -7.92, 1.78, 2.14, 8.58, repro,
2016-08-07,1.66, 0.69, -10.89, 1.59, 1.71, 7.50, repro,
2016-08-08,1.50, 0.57, -4.16, 1.57, 1.71, 7.47, repro,
2016-08-09,2.56, -2.11, -12.88, 1.62, 1.80, 7.81, repro,
2016-08-10,-0.11, -1.47, -22.53, 1.63, 1.80, 7.84, repro,
2016-08-11,-0.16, 0.81, 0.72, 1.68, 1.93, 8.01, repro,
2016-08-12,1.27, -2.70, -7.71, 1.92, 2.39, 9.27, repro,
2016-08-13,2.12, -3.97, -4.42, 1.62, 1.74, 7.70, repro,
2016-08-14,-0.72, 2.32, -17.80, 1.83, 2.13, 8.70, repro,
2016-08-15,-2.32, -1.06, -8.71, 1.74, 1.93, 8.56, repro,
2016-08-16,-1.70, -1.02, -3.82, 1.69, 1.90, 8.00, repro,
2016-08-17,2.05, 0.47, -8.41, 1.59, 1.72, 7.55, repro,
2016-08-18,1.37, 1.56, -4.05, 1.59, 1.73, 7.54, repro,
2016-08-19,1.80, 0.36, -11.11, 1.66, 1.82, 7.78, repro,
2016-08-20,0.48, 0.83, -0.71, 1.58, 1.72, 7.52, repro,
2016-08-21,2.31, -0.15, -0.27, 1.63, 1.75, 7.73, repro,
2016-08-22,0.87, 1.06, -1.38, 1.58, 1.71, 7.48, repro,
2016-08-23,0.20, 0.36, -4.08, 1.58, 1.72, 7.57, repro,
2016-08-24,1.31, -1.29, 9.05, 1.66, 1.74, 7.91, repro,
2016-08-25,0.54, -0.82, 2.39, 1.58, 1.71, 7.48, repro,
2016-08-26,2.11, -1.29, -5.53, 1.64, 1.80, 8.02, repro,
2016-08-27,0.31, -0.88, -13.95, 1.60, 1.76, 7.69, repro,
2016-08-28,0.52, 2.60, -8.01, 1.58, 1.74, 7.55, repro,
2016-08-29,1.32, 0.06, -3.68, 1.58, 1.73, 7.57, repro,
2016-08-30,0.95, -0.51, 4.95, 1.58, 1.73, 7.54, repro,
2016-08-31,0.69, 0.72, 12.77, 1.66, 1.86, 7.70, repro,
2016-09-01,0.71, 0.18, -6.16, 1.58, 1.74, 7.56, repro,
2016-09-02,1.01, 0.83, -11.40, 1.77, 2.09, 8.43, repro,
2016-09-03,3.31, -0.60, -10.09, 1.76, 2.08, 8.40, repro,
2016-09-04,0.43, -2.55, -10.76, 1.77, 1.96, 8.62, repro,
2016-09-06,-0.51, -2.68, 10.73, 1.59, 1.72, 7.47, repro,
2016-09-07,1.22, -1.88, 10.44, 1.65, 1.79, 7.77, repro,
2016-09-08,-1.39, 1.33, -1.70, 1.69, 1.89, 8.11, repro,
2016-09-09,-3.33, -0.32, 10.98, 1.68, 1.88, 8.08, repro,
2016-09-10,0.71, -2.13, -3.58, 1.60, 1.77, 7.62, repro,
2016-09-11,2.15, -4.71, -3.56, 1.81, 2.18, 8.64, repro,
2016-09-12,1.07, 1.03, 4.11, 1.74, 1.99, 8.48, repro,
2016-09-13,0.22, -0.71, -10.78, 1.68, 1.83, 7.93, repro,
2016-09-14,3.05, -2.76, -3.34, 1.75, 1.94, 8.29, repro,
2016-09-15,-1.08, -0.90, -2.26, 1.72, 1.86, 8.13, repro,
2016-09-16,1.43, -8.23, 23.31, 1.77, 2.12, 8.77, repro,
2016-09-17,2.07, -0.94, 5.38, 1.56, 1.69, 7.36, repro,
2016-09-18,-0.76, 1.68, 4.53, 1.63, 1.78, 7.74, repro,
2016-09-19,1.81, -0.82, -1.98, 1.69, 1.97, 8.01, repro,
2016-09-20,-0.13, -0.23, -4.18, 1.71, 1.89, 7.88, repro,
2016-09-21,0.75, 0.60, -8.35, 1.81, 2.06, 8.77, repro,
2016-09-22,1.17, -1.66, -5.84, 1.78, 2.12, 8.56, repro,
2016-09-23,-0.75, 0.02, -4.03, 1.66, 1.78, 7.88, repro,
2016-09-24,-1.02, 1.82, -16.95, 1.58, 1.72, 7.46, repro,
2016-09-25,0.58, -2.13, -0.15, 1.59, 1.75, 7.56, repro,
2016-09-26,0.77, -0.01, -5.50, 1.62, 1.74, 7.69, repro,
2016-09-27,2.11, 0.05, 6.76, 1.71, 1.91, 8.02, repro,
2016-09-28,0.49, -0.81, -4.85, 1.89, 2.29, 9.09, repro,
2016-09-29,-0.63, 3.25, 7.39, 1.66, 1.75, 7.99, repro,
2016-09-30,1.20, -3.09, -6.96, 1.67, 1.79, 7.85, repro,
2016-10-01,-3.10, -1.10, -1.92, 1.58, 1.70, 7.45, repro,
2016-10-02,1.71, 2.12, -1.20, 1.58, 1.73, 7.55, repro,
2016-10-03,0.95, -1.00, -0.07, 1.57, 1.68, 7.41, repro,
2016-10-04,3.15, -0.90, -0.04, 1.64, 1.79, 7.75, repro,
2016-10-05,1.51, -1.01, -1.46, 1.66, 1.80, 7.84, repro,
2016-10-06,1.28, 0.82, -0.17, 1.58, 1.69, 7.42, repro,
2016-10-07,-0.00, 1.65, 0.93, 1.58, 1.68, 7.38, repro,
2016-10-08,0.47, -1.39, 4.33, 1.63, 1.76, 7.84, repro,
2016-10-09,-0.22, -0.25, -3.07, 1.62, 1.75, 7.51, repro,
2016-10-10,-0.21, -0.68, -8.82, 1.59, 1.69, 7.42, repro,
2016-10-11,-0.37, 0.82, 0.36, 1.62, 1.79, 7.72, repro,
2016-10-12,1.34, -2.29, -5.38, 1.59, 1.70, 7.45, repro,
2016-10-13,3.06, 2.46, -4.64, 2.52, 2.46, 12.08, repro,
2016-10-14,1.15, 0.13, -5.46, 1.81, 1.95, 8.72, repro,
2016-10-15,-0.03, -0.51, -8.23, 1.92, 2.16, 9.22, repro,
2016-10-16,2.74, -0.64, 1.92, 1.72, 1.88, 8.12, repro,
2016-10-17,0.88, -1.01, 7.03, 1.57, 1.70, 7.50, repro,
2016-10-18,-0.13, 0.60, 0.12, 1.61, 1.77, 7.59, repro,
2016-10-19,-0.66, -0.18, -2.83, 1.62, 1.79, 7.67, repro,
2016-10-20,0.68, -0.11, 0.40, 1.57, 1.68, 7.35, repro,
2016-10-21,1.02, -0.57, -0.37, 1.58, 1.69, 7.42, repro,
2016-10-22,1.25, 2.74, -6.22, 1.57, 1.68, 7.40, repro,
2016-10-23,0.65, -2.14, -8.48, 1.63, 1.76, 7.87, repro,
2016-10-24,1.19, -1.27, -0.98, 1.65, 1.75, 7.79, repro,
2016-10-25,2.10, 0.17, 3.15, 1.59, 1.68, 7.42, repro,
2016-10-26,0.37, -0.96, -12.69, 1.62, 1.72, 7.65, repro,
2016-10-27,-0.57, -1.82, -6.08, 2.60, 2.51, 11.90, repro,
2016-10-28,0.67, 1.06, -2.38, 1.57, 1.68, 7.33, repro,
2016-10-29,0.63, 1.06, -4.89, 1.57, 1.67, 7.34, repro,
2016-10-30,0.17, -0.05, -12.12, 1.85, 1.97, 8.93, repro,
2016-10-31,0.94, 0.03, -12.24, 1.61, 1.70, 7.59, repro,
2016-11-01,-0.27, -1.39, -1.09, 1.67, 1.77, 7.81, repro,
2016-11-02,-1.19, 1.67, -10.02, 1.64, 1.75, 7.80, repro,
2016-11-03,0.83, -0.13, -12.47, 1.60, 1.74, 7.48, repro,
2016-11-04,1.68, 0.96, -5.70, 1.57, 1.68, 7.37, repro,
2016-11-05,2.06, 0.80, -19.81, 1.58, 1.68, 7.37, repro,
2016-11-06,1.76, 1.87, -25.10, 1.66, 1.83, 8.00, repro,
2016-11-07,-2.16, -1.97, -20.46, 1.77, 1.83, 8.34, repro,
2016-11-08,0.05, 2.22, -12.85, 1.69, 1.79, 7.96, repro,
2016-11-09,-0.54, 0.74, -7.06, 1.56, 1.67, 7.27, repro,
2016-11-10,-0.23, 0.46, -4.94, 1.82, 2.09, 8.80, repro,
2016-11-11,3.62, -1.20, -18.18, 1.68, 1.85, 7.89, repro,
2016-11-12,0.15, -5.01, -7.77, 1.73, 1.85, 8.14, repro,
2016-11-13,0.10, -1.23, -22.40, 1.65, 1.73, 7.86, repro,
2016-11-14,-0.73, 0.80, -13.70, 1.65, 1.86, 7.82, repro,
2016-11-15,1.49, 2.37, -11.46, 1.61, 1.75, 7.50, repro,
2016-11-16,1.63, 1.50, -6.39, 1.57, 1.72, 7.45, repro,
2016-11-17,1.19, -0.28, -10.25, 1.57, 1.68, 7.34, repro,
2016-11-18,1.91, 3.14, -1.35, 1.65, 1.73, 7.82, repro,
2016-11-19,1.50, 2.44, -20.88, 1.70, 1.82, 8.06, repro,
2016-11-20,0.53, 0.47, -1.40, 1.57, 1.69, 7.36, repro,
2016-11-21,0.42, 1.14, -6.21, 1.58, 1.69, 7.41, repro,
2016-11-22,-0.43, -0.30, -12.86, 1.56, 1.68, 7.33, repro,
2016-11-23,-1.16, -0.06, -6.60, 1.59, 1.70, 7.48, repro,
2016-11-24,1.57, 1.66, 8.79, 1.60, 1.71, 7.52, repro,
2016-11-25,-0.25, 1.49, -21.32, 1.60, 1.76, 7.61, repro,
2016-11-26,2.03, 1.77, -7.55, 1.62, 1.71, 7.73, repro,
2016-11-27,1.20, 0.15, -2.56, 1.70, 1.79, 7.87, repro,
2016-11-28,0.30, 0.06, -3.39, 1.59, 1.75, 7.46, repro,
2016-11-29,1.06, 0.21, 0.19, 1.57, 1.69, 7.38, repro,
2016-11-30,0.33, 0.54, -2.02, 1.58, 1.72, 7.40, repro,
2016-12-01,0.45, 3.04, 1.12, 1.63, 1.73, 7.74, repro,
2016-12-02,0.35, -0.19, -3.14, 1.68, 1.84, 8.17, repro,
2016-12-03,-0.12, 0.17, 3.15, 1.64, 1.80, 7.73, repro,
2016-12-04,1.04, 1.26, -5.66, 1.77, 1.97, 8.40, repro,
2016-12-05,-0.54, 0.79, 3.69, 1.60, 1.73, 7.44, repro,
2016-12-06,1.44, 2.18, 0.61, 1.58, 1.71, 7.37, repro,
2016-12-07,1.10, 1.08, 4.06, 1.58, 1.72, 7.48, repro,
2016-12-08,-0.27, 0.97, -1.15, 1.57, 1.70, 7.35, repro,
2016-12-09,-1.41, 2.27, -11.21, 1.59, 1.76, 7.43, repro,
2016-12-10,-0.44, 1.22, -0.80, 1.57, 1.72, 7.42, repro,
2016-12-11,-0.03, 0.85, -9.64, 1.59, 1.73, 7.57, repro,
2016-12-12,-0.80, 0.05, -5.65, 1.58, 1.71, 7.48, repro,
2016-12-13,1.28, 0.50, -0.15, 1.60, 1.71, 7.55, repro,
2016-12-14,-0.33, 1.37, 1.55, 1.59, 1.70, 7.51, repro,
2016-12-15,-0.32, 2.76, -6.79, 1.56, 1.69, 7.30, repro,
2016-12-16,-0.11, 0.73, 1.23, 1.57, 1.69, 7.36, repro,
2016-12-17,-1.48, 0.83, -4.00, 1.60, 1.73, 7.57, repro,
2016-12-18,2.79, 2.58, -40.04, 2.37, 2.47, 11.17, repro,
2016-12-19,3.16, 0.93, -0.14, 1.69, 1.79, 8.05, repro,
2016-12-20,0.11, 2.16, -1.12, 1.64, 1.74, 7.72, repro,
2016-12-21,-0.06, 2.65, -3.86, 1.58, 1.69, 7.39, repro,
2016-12-22,-0.19, 1.37, -3.63, 1.57, 1.68, 7.37, repro,
2016-12-23,0.40, 1.63, -7.65, 1.57, 1.68, 7.37, repro,
2016-12-24,0.72, 2.04, -8.38, 1.59, 1.69, 7.45, repro,
2016-12-25,-0.56, 0.25, 1.21, 1.60, 1.71, 7.55, repro,
2016-12-26,-2.95, 0.37, -10.17, 1.60, 1.70, 7.53, repro,
2016-12-27,1.45, 3.17, -11.24, 1.58, 1.71, 7.54, repro,
2016-12-28,2.26, 0.71, -4.56, 1.56, 1.71, 7.41, repro,
2016-12-29,-0.23, -0.10, -6.18, 1.57, 1.68, 7.37, repro,
2016-12-30,0.35, 3.01, -6.24, 1.58, 1.69, 7.48, repro,
2016-12-31,-0.26, 1.29, 3.16, 1.57, 1.68, 7.37, repro,
2017-01-01,-0.48, 0.02, 2.92, 1.58, 1.69, 7.46, repro,
2017-01-02,-1.65, 2.25, -8.29, 1.56, 1.67, 7.37, repro,
2017-01-03,-0.42, 1.25, -2.14, 1.56, 1.67, 7.31, repro,
2017-01-04,-0.53, 0.83, -1.88, 1.58, 1.68, 7.41, repro,
2017-01-05,1.07, 0.80, 3.87, 1.58, 1.68, 7.42, repro,
2017-01-06,0.17, 2.73, 0.43, 1.61, 1.82, 7.69, repro,
2017-01-07,-1.65, 1.46, -2.10, 1.57, 1.68, 7.40, repro,
2017-01-08,-1.12, 1.21, -13.12, 1.60, 1.73, 7.45, repro,
2017-01-09,-0.10, 0.12, -20.59, 1.60, 1.71, 7.49, repro,
2017-01-10,-0.03, 0.61, -9.71, 1.59, 1.73, 7.49, repro,
2017-01-11,0.33, 0.80, -12.35, 1.57, 1.67, 7.32, repro,
2017-01-12,1.24, 0.60, 0.95, 1.69, 1.77, 7.95, repro,
2017-01-13,0.42, 1.37, -9.53, 1.56, 1.69, 7.32, repro,
2017-01-14,-1.96, 1.22, -5.62, 1.57, 1.73, 7.37, repro,
2017-01-15,-0.08, 1.15, -12.86, 1.59, 1.69, 7.37, repro,
2017-01-16,2.20, -0.78, -2.19, 1.60, 1.74, 7.59, repro,
2017-01-17,0.12, 0.77, -9.01, 1.60, 1.71, 7.53, repro,